Vorticity
nan nan nan nan nan nan nan nan nan nan nan nan nan nan nan nan nan nan nan nan nan nan nan nan nan nan nan nan nan nan nan nan nan nan nan nan nan nan nan nan nan nan nan nan nan nan nan nan nan nan nan nan nan nan nan nan nan nan nan nan nan nan nan nan nan nan nan nan nan nan nan nan nan nan nan nan nan nan nan nan nan nan nan nan nan nan
nan 9 9 9 8 8 7 8 10 12 11 9 9 9 8 7 6 6 6 8 8 9 8 7 7 7 6 4 5 6 6 6 6 6 6 6 6 6 6 6 6 6 6 6 6 6 6 6 6 7 7 7 7 7 7 6 6 6 6 6 6 6 6 6 6 6 7 7 7 7 8 8 8 8 8 8 8 7 7 7 7 7 8 8 8 nan
nan 9 9 8 8 8 7 7 8 9 10 9 9 9 9 8 7 7 7 8 8 8 8 8 7 7 6 6 6 6 6 7 7 7 7 6 6 6 6 6 6 6 6 6 6 6 7 7 7 7 7 7 7 7 7 6 6 6 5 5 5 5 5 5 5 5 5 5 6 6 6 7 7 7 7 7 7 7 7 7 7 7 8 8 8 nan
nan 9 9 8 8 9 9 8 7 7 8 8 8 8 8 7 7 7 8 8 8 8 8 8 7 7 6 6 7 8 8 7 7 7 7 7 7 7 7 7 7 6 6 7 7 7 8 8 9 9 8 8 8 7 7 6 6 5 5 5 5 5 4 4 4 4 5 5 5 5 5 6 6 7 7 7 7 7 7 7 7 7 7 7 7 nan
nan 10 9 8 8 8 9 9 8 8 8 8 8 8 7 7 7 8 8 9 9 9 8 8 8 7 7 8 9 10 9 7 7 8 8 8 8 8 8 8 8 8 9 9 9 9 10 10 10 10 9 9 8 7 6 6 5 5 4 4 4 4 4 4 4 4 4 4 5 5 5 6 6 7 7 7 7 7 7 7 7 7 7 7 7 nan
nan 9 9 9 9 9 8 9 9 8 8 8 9 9 9 9 8 8 9 9 9 9 9 9 9 9 9 10 11 11 8 7 7 7 8 9 9 9 10 10 10 11 11 12 12 11 11 11 11 10 9 8 7 6 5 5 4 4 4 4 4 4 4 4 4 4 4 5 5 5 6 6 7 7 7 7 7 7 7 7 7 7 7 7 8 nan
nan 9 9 10 10 10 9 9 9 8 8 9 9 10 10 10 9 10 10 10 9 9 9 9 10 10 11 12 12 10 8 8 8 8 8 8 9 9 11 11 11 11 12 12 12 11 10 10 9 8 7 6 5 4 4 3 3 3 3 3 4 4 4 4 4 4 5 5 5 6 7 7 7 8 8 8 8 8 8 7 7 7 7 8 8 nan
nan 9 9 9 9 9 9 9 9 9 8 9 9 9 9 10 10 10 10 10 10 10 10 10 9 10 11 12 12 10 10 11 10 10 10 9 9 10 10 10 10 10 10 9 9 8 7 7 6 5 4 4 3 3 3 3 3 3 3 4 4 4 4 4 4 5 5 6 6 7 8 8 9 9 9 9 9 9 9 8 8 8 8 8 8 nan
nan 9 9 9 9 9 9 10 9 9 9 10 10 9 10 9 9 9 10 9 10 11 11 10 10 9 10 11 11 11 12 12 12 12 12 10 11 11 11 10 9 8 7 6 6 5 5 4 3 3 3 3 2 2 2 3 3 3 4 4 4 4 5 5 6 6 7 8 8 9 9 10 10 10 10 10 10 10 9 9 9 9 8 9 9 nan
nan 9 9 9 9 9 10 10 10 10 10 10 10 10 10 9 9 9 9 9 8 9 10 10 10 9 9 9 9 10 10 10 11 12 11 10 10 10 9 9 8 8 6 5 4 4 3 3 3 3 3 3 3 3 4 4 4 5 5 5 5 6 6 7 8 8 10 11 11 11 12 12 12 12 12 11 11 10 10 10 10 9 9 9 9 nan
nan 8 9 9 9 10 10 10 10 10 10 10 9 10 10 10 11 11 10 9 8 8 9 10 10 9 9 8 8 9 9 8 8 9 9 9 8 7 8 8 8 8 7 6 6 5 4 4 4 4 5 5 5 6 6 6 6 6 6 7 7 8 9 10 10 11 12 13 13 14 13 13 13 13 12 12 12 11 11 10 10 10 10 9 10 nan
nan 8 9 9 9 9 9 9 9 10 10 9 9 9 9 11 12 12 11 10 9 8 7 8 9 10 9 8 8 9 9 9 8 8 8 8 7 7 8 8 8 9 9 9 10 10 9 8 8 9 9 9 9 9 8 9 8 9 9 9 9 10 10 11 12 13 14 14 15 15 14 14 14 13 13 13 12 12 11 10 10 10 10 10 10 nan
nan 9 10 10 9 9 8 8 9 10 10 10 10 10 9 9 11 11 11 10 9 9 8 8 8 8 9 9 9 9 9 10 10 10 10 9 9 9 9 9 9 10 11 11 12 13 13 14 14 14 13 14 13 12 12 11 10 10 10 10 9 10 10 11 12 13 13 14 14 14 14 14 14 13 13 12 12 12 11 11 11 11 10 10 10 nan
nan 10 10 10 10 9 9 9 9 9 9 10 10 11 10 9 10 10 10 10 10 10 11 10 8 8 8 8 9 10 10 10 10 10 10 10 11 11 10 10 9 10 10 10 10 10 12 15 16 15 15 16 15 14 13 13 12 11 10 9 8 9 10 11 11 12 13 13 14 14 14 13 13 13 12 12 12 12 11 11 11 11 11 10 10 nan
nan 9 9 9 9 9 9 10 10 9 9 10 10 10 10 9 10 10 10 9 9 9 10 10 9 9 9 8 9 10 11 10 10 10 10 11 11 12 11 10 9 9 9 9 9 9 11 12 12 11 12 12 11 9 7 9 9 9 8 7 8 9 10 11 11 11 12 12 13 13 13 13 13 12 12 12 11 11 11 11 11 11 10 10 9 nan
nan 9 9 10 9 9 9 10 10 10 10 10 10 10 10 10 9 10 10 9 9 9 9 9 9 9 9 9 9 10 10 11 11 10 10 10 11 11 11 10 9 8 8 9 9 9 10 10 10 9 8 5 3 3 5 6 5 6 6 7 8 9 9 10 10 10 11 11 12 12 12 12 12 11 11 11 11 10 10 10 10 10 9 9 9 nan
nan 9 10 10 9 9 9 10 10 10 10 9 10 10 10 10 9 9 9 10 10 10 10 10 9 8 8 8 9 10 10 11 10 9 10 10 10 11 11 11 9 8 8 9 9 9 9 8 9 8 5 2 2 5 8 6 5 6 6 7 8 8 9 9 9 9 10 10 10 11 11 11 11 11 10 10 10 10 9 9 9 9 8 8 8 nan
nan 10 10 10 10 9 10 9 10 10 10 10 10 10 10 10 10 10 10 10 10 10 10 10 10 10 9 8 8 8 10 11 10 9 9 10 10 10 10 11 11 9 8 8 9 9 9 9 7 4 1 1 4 7 8 7 7 7 8 8 9 9 9 8 8 8 9 9 9 9 9 10 10 10 10 9 9 9 9 9 8 8 8 8 8 nan
nan 10 10 10 11 10 10 10 10 10 10 10 10 10 9 10 10 11 10 11 10 10 10 9 10 10 10 9 8 8 10 11 10 9 9 10 9 9 9 11 11 10 9 9 9 9 9 9 7 4 3 6 8 8 9 9 9 9 9 10 10 10 9 9 9 8 8 8 8 9 9 9 9 9 9 9 9 9 9 9 8 8 8 8 8 nan
nan 10 9 10 10 9 9 10 10 11 11 11 11 10 9 9 9 9 9 10 10 10 10 9 9 9 10 10 9 9 9 10 10 10 10 10 9 8 10 11 10 10 9 10 10 10 9 9 9 10 10 9 9 9 9 10 10 10 11 11 10 10 10 10 9 9 9 8 8 8 8 9 8 9 9 9 9 9 9 9 9 9 8 8 8 nan
nan 10 10 10 10 9 9 10 10 12 12 11 10 10 9 10 9 9 9 9 9 10 9 9 9 9 10 9 9 9 9 9 9 9 10 10 10 10 10 11 10 9 9 11 11 10 10 10 11 11 9 7 8 9 10 11 11 11 11 11 11 11 11 11 10 10 9 9 9 9 9 9 9 9 9 9 10 10 10 10 9 9 9 9 9 nan
nan 11 13 13 13 12 12 12 11 11 12 11 11 10 9 9 10 10 10 10 10 10 9 9 10 10 10 9 9 10 11 9 9 8 9 10 10 10 10 10 10 9 9 10 10 10 10 11 10 8 5 5 8 10 12 13 13 12 12 11 11 12 12 12 12 11 10 10 10 10 10 10 10 10 11 10 10 10 10 10 10 10 10 10 10 nan
nan 14 15 16 15 14 13 11 10 10 11 12 12 10 9 10 10 10 10 11 11 11 10 10 10 10 9 9 10 11 11 10 9 9 9 9 9 9 9 10 9 9 9 9 9 9 10 10 9 7 6 7 11 14 16 16 15 13 11 12 12 13 14 14 14 13 12 12 11 11 11 11 12 11 11 11 11 11 11 11 11 11 10 10 10 nan
nan 13 13 13 13 13 12 11 11 11 11 11 11 11 12 11 11 11 11 11 10 10 9 10 10 10 10 11 11 11 10 10 9 10 9 9 9 9 9 9 9 10 10 10 9 9 9 10 9 9 9 12 17 19 19 17 14 12 11 13 14 15 16 15 15 14 13 12 12 12 11 11 11 11 11 11 10 10 10 10 10 9 9 9 9 nan
nan 13 13 14 15 15 15 14 14 13 12 11 11 11 11 11 11 10 10 10 9 9 9 10 10 10 11 12 11 10 10 11 10 10 9 9 10 9 9 10 10 10 9 9 9 9 9 9 10 10 11 16 19 19 17 13 11 10 11 13 14 15 15 14 14 13 12 11 10 10 10 9 9 9 9 9 9 8 8 8 8 8 8 8 9 nan
nan 17 18 17 17 15 14 13 12 11 11 11 11 10 10 10 10 8 8 9 10 10 9 9 9 9 10 11 11 10 11 11 11 10 9 9 10 9 10 11 11 10 9 9 10 9 8 9 10 11 12 15 16 15 11 8 7 8 10 11 12 12 11 11 10 9 8 8 8 8 8 7 7 7 7 7 7 8 8 8 8 8 8 10 12 nan
nan 16 15 13 11 10 10 9 8 7 7 7 9 9 9 9 9 9 8 10 11 11 9 8 8 8 10 10 11 11 13 11 9 9 10 9 9 9 10 10 10 10 10 10 10 9 8 10 10 11 11 12 12 12 9 7 7 8 9 9 9 8 7 7 6 6 6 6 6 7 7 7 7 7 7 8 8 8 8 8 8 9 11 14 18 nan
nan 8 8 7 7 7 7 7 6 5 4 4 5 6 7 8 9 9 9 11 12 12 10 9 9 9 9 10 10 11 12 12 10 9 9 9 9 9 10 10 10 10 11 11 12 11 12 13 12 11 10 10 10 11 10 9 10 10 10 9 8 7 6 6 6 6 6 7 7 8 8 8 9 9 9 9 9 9 9 8 9 12 16 19 20 nan
nan 5 4 4 4 3 3 4 5 5 3 2 2 3 5 8 9 9 9 10 10 10 10 10 10 10 9 9 10 11 11 12 11 10 9 8 9 9 10 10 10 10 11 11 12 12 14 14 12 11 10 10 10 10 10 12 13 14 13 12 10 9 8 8 8 8 8 9 9 9 10 10 10 10 10 10 10 10 9 9 12 16 20 19 16 nan
nan 4 3 3 2 2 2 4 6 8 6 5 5 5 6 8 10 10 10 9 9 9 10 10 10 10 9 10 11 11 11 11 11 11 10 8 8 9 10 10 10 10 10 11 12 11 11 11 10 11 11 11 10 10 10 12 14 15 16 16 15 13 11 11 11 11 11 11 10 10 10 10 11 11 11 11 10 10 10 10 13 15 17 14 12 nan
nan 6 5 6 5 6 6 7 8 10 11 11 11 11 10 10 10 10 11 10 10 10 10 10 10 10 9 9 10 9 10 11 11 11 10 9 9 10 10 10 10 11 10 10 10 9 9 9 10 11 11 11 11 11 11 12 12 13 13 15 15 14 12 13 13 14 13 12 11 10 10 11 11 11 11 11 11 11 11 12 12 13 12 11 10 nan
nan 9 8 8 8 9 9 9 9 10 11 12 12 13 12 11 10 10 11 11 11 11 10 10 9 9 9 9 8 7 7 11 13 11 8 9 11 12 11 10 10 10 11 11 11 9 9 9 9 10 10 10 11 11 11 11 11 11 11 11 11 11 12 14 16 16 16 14 13 12 11 11 11 11 11 12 12 12 12 13 13 12 9 10 10 nan
nan 10 9 10 10 10 10 10 10 10 10 10 10 10 11 11 11 10 10 11 11 11 10 10 9 9 9 9 8 7 7 11 15 13 7 7 10 11 10 10 10 10 11 11 11 10 9 8 8 8 9 10 11 11 11 11 12 12 11 10 9 9 12 14 15 15 15 15 15 15 14 14 13 12 12 12 12 13 13 14 13 11 6 8 9 nan
nan 9 9 9 9 10 10 10 11 11 10 10 10 10 10 10 10 10 10 10 11 11 11 10 10 9 9 9 9 8 9 12 14 13 9 7 9 10 10 10 10 10 11 10 10 10 10 9 8 8 9 11 11 11 11 11 12 13 13 11 10 9 10 11 12 12 12 13 14 15 16 16 16 15 14 13 12 11 11 12 12 10 7 5 5 nan
nan 9 9 9 9 9 9 10 11 12 11 10 10 10 10 10 10 10 10 10 10 11 12 12 11 10 9 9 9 9 9 10 12 12 10 10 10 10 10 10 10 10 10 10 10 10 10 10 10 9 9 10 11 11 11 11 11 12 13 12 11 10 10 10 10 10 11 11 11 12 13 14 15 15 14 11 9 9 9 10 10 10 10 6 3 nan
nan 9 9 10 10 10 10 10 11 11 10 10 10 11 11 10 10 10 10 10 11 11 11 11 12 11 10 10 9 9 8 9 10 11 12 13 12 10 10 11 11 10 9 9 10 10 10 10 10 10 10 10 10 11 11 11 11 11 12 12 11 11 11 10 10 10 11 10 9 10 10 11 12 13 11 8 8 8 9 9 10 10 10 9 7 nan
nan 9 10 11 11 11 11 11 11 11 10 10 11 11 11 10 10 10 10 11 11 10 10 10 10 10 10 9 9 8 8 7 8 9 11 14 13 11 10 11 12 10 9 9 9 9 9 9 10 11 11 11 9 7 7 8 9 10 11 11 10 10 11 11 11 10 9 9 8 8 8 9 11 12 12 12 14 16 16 17 16 14 13 13 12 nan
nan 9 10 11 11 12 12 11 11 11 10 11 11 12 11 11 10 10 10 10 10 9 9 8 8 7 8 9 8 7 6 6 7 7 9 11 11 10 9 10 11 11 10 10 10 9 9 9 9 10 11 11 9 8 7 8 9 9 9 9 9 9 10 11 11 10 10 10 10 10 11 11 11 12 13 16 18 18 19 20 19 18 19 21 19 nan
nan 10 10 10 11 11 11 11 11 12 12 12 12 12 11 11 10 10 10 10 10 9 8 8 7 7 8 8 8 7 7 8 8 7 8 8 8 8 8 8 9 10 10 11 10 9 9 9 8 8 7 8 10 10 10 10 9 8 7 8 10 11 12 11 11 11 11 12 12 12 13 12 11 11 11 12 12 12 13 14 16 17 19 20 21 nan
nan 10 10 11 11 11 11 11 12 12 12 11 11 10 10 10 10 10 11 11 10 10 10 9 8 9 9 10 10 10 10 9 8 7 7 7 7 7 7 7 7 8 9 9 9 9 9 8 7 7 6 6 7 7 8 8 7 4 5 8 10 10 10 9 9 10 10 10 10 11 10 10 9 9 9 9 10 10 10 10 12 13 13 12 13 nan
nan 9 10 11 12 12 12 12 13 13 11 10 9 9 9 9 9 10 10 11 11 11 11 11 10 10 11 12 12 13 12 10 9 7 6 8 7 7 6 6 7 7 8 8 8 8 8 8 8 8 8 8 7 8 8 7 6 5 7 9 8 7 6 7 9 11 11 10 10 10 9 9 10 11 11 11 11 11 10 9 8 8 9 10 10 nan
nan 9 10 10 11 12 13 13 13 11 9 9 9 9 9 9 9 9 10 10 11 12 12 11 11 11 11 12 14 15 15 13 12 10 9 10 9 7 6 7 8 8 8 8 8 9 9 8 8 9 9 9 9 9 9 9 11 12 11 8 7 8 12 15 15 14 12 11 11 12 12 12 12 12 12 11 12 12 11 8 5 3 5 8 9 nan
nan 10 11 11 11 12 12 10 9 8 8 9 9 9 9 9 9 9 9 9 11 11 12 12 12 12 11 11 12 15 17 17 17 15 13 11 11 10 8 9 9 9 9 8 9 10 11 10 9 9 9 9 9 8 8 10 12 13 13 10 8 9 12 14 13 13 12 11 11 12 14 13 12 11 11 11 11 11 11 10 10 9 8 8 9 nan
nan 11 11 11 11 11 10 9 9 9 9 9 9 9 10 10 9 8 8 9 10 10 11 11 12 12 11 11 11 12 14 17 20 20 20 14 9 7 9 11 10 10 8 7 7 8 11 12 11 11 11 10 9 8 9 9 10 11 11 11 9 7 5 6 7 7 7 9 10 10 11 11 11 10 10 11 10 10 10 11 12 13 13 11 10 nan
nan 10 10 11 11 10 10 10 9 10 10 9 8 9 10 11 10 9 8 9 10 10 10 10 10 10 10 12 12 11 11 14 17 20 24 23 17 10 7 9 9 9 8 7 6 6 8 10 11 11 12 11 10 9 9 8 9 10 11 11 10 9 6 5 6 6 6 8 9 10 10 10 10 10 10 10 10 10 10 10 10 10 12 12 11 nan
nan 10 10 11 11 11 10 10 9 9 10 10 9 10 11 11 11 11 10 9 9 10 10 10 9 9 9 10 10 11 10 11 14 16 19 20 19 17 13 10 9 8 7 8 7 7 6 7 8 9 9 10 11 11 11 10 9 9 11 12 12 11 11 10 10 10 10 9 10 12 13 12 11 10 10 10 10 11 11 11 11 10 10 10 11 nan
nan 9 9 10 10 10 11 11 10 10 10 10 10 11 11 11 10 10 11 10 9 9 9 9 9 9 8 8 9 9 8 9 11 13 15 15 14 14 14 13 12 9 7 8 7 7 6 6 6 7 7 8 10 12 12 12 11 10 10 12 12 11 10 11 12 13 12 11 12 12 12 11 10 9 9 9 10 11 12 12 12 11 11 10 10 nan
nan 9 9 9 9 9 10 11 11 10 10 10 11 12 13 12 9 6 8 11 10 9 9 8 9 9 9 9 8 8 7 8 10 12 14 14 13 13 11 11 12 12 11 10 10 9 8 8 7 5 5 6 7 8 10 11 11 11 11 11 11 10 10 10 11 12 12 12 12 11 9 7 7 6 7 8 8 9 10 11 12 12 11 10 10 nan
nan 11 9 9 9 9 9 10 11 11 10 9 9 11 15 16 14 6 5 10 10 9 9 9 8 8 9 9 9 9 9 9 10 11 12 14 14 14 12 11 11 12 13 14 14 13 14 15 13 9 4 2 2 4 7 9 10 11 11 10 10 10 11 10 11 11 11 11 11 10 7 6 6 7 8 8 8 7 8 10 12 13 13 12 11 nan
nan 11 10 9 9 9 9 10 11 10 10 10 9 10 12 14 14 12 10 9 9 9 9 9 9 8 8 9 9 10 10 10 10 10 11 13 14 15 14 12 11 11 12 14 14 14 16 20 22 22 16 6 -0 -2 4 8 10 11 11 11 11 11 11 11 11 11 10 10 10 11 8 7 9 10 10 10 9 9 9 11 12 14 14 14 13 nan
nan nan nan nan nan nan nan nan nan nan nan nan nan nan nan nan nan nan nan nan nan nan nan nan nan nan nan nan nan nan nan nan nan nan nan nan nan nan nan nan nan nan nan nan nan nan nan nan nan nan nan nan nan nan nan nan nan nan nan nan nan nan nan nan nan nan nan nan nan nan nan nan nan nan nan nan nan nan nan nan nan nan nan nan nan nan
CAPE
nan nan nan nan nan nan nan nan nan nan nan nan nan nan nan nan nan nan nan nan nan nan nan nan nan nan nan 5 6 6 8 10 8 8 9 8 5 5 4 4 4 2 1 0 0 nan nan nan nan nan nan nan nan nan nan nan nan nan nan nan nan nan nan nan nan 1 2 3 5 5 6 7 7 7 6 6 9 9 10 12 12 10 10 11 11 12
nan nan nan nan nan nan nan nan nan nan nan nan 0 0 0 nan nan nan nan nan nan nan nan nan nan nan nan 0 6 6 7 8 8 8 9 8 6 6 4 3 3 2 1 0 0 nan nan 0 0 0 0 nan nan nan nan nan nan nan nan nan nan nan nan nan nan 0 1 1 1 1 2 3 3 3 3 4 8 8 12 14 14 13 12 13 13 12
nan nan nan nan nan nan nan nan nan nan nan nan 0 0 0 nan nan nan nan nan nan nan nan nan nan nan nan nan 5 5 6 8 10 10 9 7 4 4 2 2 2 1 0 0 0 nan nan nan nan 0 0 0 nan nan nan nan nan nan nan nan nan nan nan nan nan nan nan nan nan nan nan 0 1 1 1 3 6 6 10 13 13 13 11 10 10 10
nan nan nan nan nan nan nan nan nan nan nan 0 1 1 nan nan nan nan nan nan nan nan nan nan nan nan nan nan 4 4 8 8 12 12 10 9 6 6 4 2 2 2 2 1 1 0 0 0 0 0 1 0 0 0 nan nan nan nan nan nan nan nan nan nan nan nan nan nan nan nan nan nan nan nan 0 2 3 3 5 6 6 6 7 7 7 8
nan nan nan nan nan nan nan nan 0 0 1 nan 0 0 nan nan nan nan nan nan nan nan nan nan nan nan nan nan nan nan 4 7 8 8 8 8 7 7 6 5 5 4 3 3 3 2 1 1 1 1 1 0 nan nan nan nan nan nan nan nan nan nan nan nan nan nan nan nan nan nan nan nan nan nan nan 1 1 1 2 3 3 3 4 7 7 8
nan nan nan nan nan nan nan nan 0 0 nan nan nan nan nan nan nan nan nan nan nan nan nan nan nan nan nan nan nan nan nan 0 1 1 3 3 4 4 4 3 3 4 4 3 3 3 2 1 1 1 nan nan nan nan nan nan nan nan nan nan nan nan nan nan nan nan nan nan nan nan nan nan nan nan nan nan 1 1 1 2 2 2 4 6 6 8
nan nan nan nan nan nan nan nan 0 0 nan nan nan nan nan nan nan nan nan nan nan nan nan nan nan nan nan nan nan nan nan nan nan nan nan nan nan nan nan 0 0 0 0 0 0 0 0 nan nan nan nan nan nan nan nan nan nan nan nan nan nan nan nan nan nan nan nan nan nan nan nan nan nan nan nan nan 0 0 2 3 3 4 6 8 8 8
nan nan nan nan nan nan 0 nan nan nan nan nan nan nan nan nan nan nan nan nan nan nan nan nan nan nan nan nan nan nan nan nan nan nan nan nan nan nan nan nan nan nan nan nan nan nan nan nan nan nan nan nan nan nan nan nan nan nan nan nan nan nan nan nan nan nan nan nan nan nan nan nan nan nan nan nan nan nan 2 5 5 8 14 18 18 20
nan nan nan nan nan nan nan nan nan nan nan nan nan nan nan nan nan nan nan nan nan nan nan nan nan nan nan nan nan nan nan nan nan nan nan nan nan nan nan nan nan nan nan nan nan nan nan nan nan nan nan nan nan nan nan nan nan nan nan nan nan nan nan nan nan nan nan nan nan nan nan nan nan nan nan nan nan nan 1 3 3 8 13 18 18 22
nan nan nan nan nan nan nan nan nan nan nan nan nan nan nan nan nan nan nan nan nan nan nan nan nan nan nan nan nan nan nan nan nan nan nan nan nan nan nan nan nan nan nan nan nan nan nan nan nan nan nan nan nan nan nan nan nan nan nan nan nan nan nan nan nan nan nan nan nan nan nan nan nan nan nan nan 0 0 1 3 3 6 11 15 15 19
nan nan nan nan nan nan nan nan nan nan nan nan nan nan nan nan nan nan nan nan nan nan nan nan nan nan nan nan nan nan nan nan nan nan nan nan nan nan nan nan nan nan nan nan nan nan nan nan nan nan nan nan nan nan nan nan nan nan nan nan nan nan nan nan nan nan nan nan nan nan nan nan nan nan nan nan 1 1 2 3 3 5 8 11 11 15
nan nan nan nan nan nan nan nan nan nan nan nan nan nan nan nan nan nan nan nan nan nan nan nan nan nan nan nan nan nan nan nan nan nan nan nan nan nan nan nan nan nan nan nan nan nan nan nan nan nan nan nan nan nan nan nan nan nan nan nan nan nan nan nan nan nan nan nan nan nan nan nan nan nan nan 0 2 2 3 3 3 5 6 8 8 12
nan nan nan nan nan nan nan nan nan nan nan nan nan nan nan nan nan nan nan nan nan nan nan nan nan nan nan nan nan nan nan nan nan nan nan nan nan nan nan nan nan nan nan nan nan nan nan nan nan nan nan nan nan nan nan nan nan nan nan nan nan nan nan nan nan nan nan nan nan nan nan nan nan nan nan 0 2 2 3 4 4 5 6 7 7 12
nan nan nan nan nan nan nan nan nan nan nan nan nan nan nan nan nan nan nan nan nan nan nan nan nan nan nan nan nan nan nan nan nan nan nan nan nan nan nan nan nan nan nan nan nan nan nan nan nan nan nan nan nan nan nan nan nan nan nan nan nan nan nan nan nan nan nan nan nan nan nan nan nan nan nan 1 3 3 4 4 4 5 7 8 8 13
nan nan nan nan nan nan nan nan nan nan nan nan nan nan nan nan nan nan nan nan nan nan nan nan nan nan nan nan nan nan nan nan nan nan nan nan nan nan nan nan nan nan nan nan nan nan nan nan nan nan nan nan nan nan nan nan nan nan nan nan nan nan nan nan nan nan 0 1 0 0 0 0 0 0 0 2 3 3 5 6 6 6 7 9 9 13
nan nan nan nan nan nan nan nan nan nan nan nan nan nan nan nan nan nan nan nan nan nan nan nan nan nan nan nan nan nan nan nan nan nan nan nan nan nan nan nan nan nan nan nan nan nan nan nan nan nan nan nan nan nan nan nan nan nan nan nan nan nan nan nan nan 0 2 2 2 2 1 1 1 1 2 3 4 4 5 7 7 8 9 10 10 13
nan nan nan nan nan nan nan nan nan nan nan nan nan nan nan nan nan nan nan nan nan nan nan nan nan nan nan nan nan nan nan nan nan nan nan nan nan nan nan nan nan nan nan nan nan nan nan nan nan nan nan nan nan nan nan nan nan nan nan nan nan nan nan nan nan 0 2 3 3 3 2 3 3 3 3 4 5 5 7 8 8 10 11 12 12 12
nan nan nan nan nan nan nan nan nan nan nan nan nan nan nan nan nan nan nan nan nan nan nan nan nan nan nan nan nan nan nan nan nan nan nan nan nan nan nan nan nan nan nan nan nan nan nan nan nan nan nan nan nan nan nan nan nan nan nan nan nan nan nan nan nan 0 2 3 3 3 3 4 4 4 5 5 6 6 8 9 9 11 12 12 12 11
nan nan nan nan nan nan nan nan nan nan nan nan nan nan nan nan nan nan nan nan nan nan nan nan nan nan nan nan nan nan nan nan nan nan nan nan nan nan nan nan nan nan nan nan nan nan nan nan nan nan nan nan nan nan nan nan nan nan nan nan nan nan nan nan nan nan 0 2 4 4 3 4 4 4 5 6 7 7 8 9 9 10 11 11 11 11
nan nan nan nan nan nan nan nan nan nan nan nan nan nan nan nan nan nan nan nan nan nan nan nan nan nan nan nan nan nan nan nan nan nan nan nan nan nan nan nan nan nan nan nan nan nan nan nan nan nan nan nan nan nan nan nan nan nan nan nan nan nan nan nan nan nan 0 1 2 2 3 4 4 4 4 5 6 6 7 8 8 9 8 9 9 10
nan nan nan nan nan nan nan nan nan nan nan nan nan nan nan nan nan nan nan nan nan nan nan nan nan nan nan nan nan nan nan nan nan nan nan nan nan nan nan nan nan nan nan nan nan nan nan nan nan nan nan nan nan nan nan nan nan nan nan nan nan nan nan nan nan 0 0 0 1 1 2 2 3 3 4 4 4 4 5 6 6 7 7 8 8 9
nan nan nan nan nan nan nan nan nan nan nan nan nan nan nan nan nan nan nan nan nan nan nan nan nan nan nan nan nan nan nan nan nan nan nan nan nan nan nan nan nan nan nan nan nan nan nan nan nan nan nan nan nan nan nan nan nan nan nan nan nan nan nan nan nan nan nan 0 0 0 1 1 2 2 3 3 4 4 4 4 4 6 7 7 7 7
nan nan nan nan nan nan nan nan nan nan nan nan nan nan nan nan nan nan nan nan nan nan nan nan nan nan nan nan nan nan nan nan nan nan nan nan nan nan nan nan nan nan nan nan nan nan nan nan nan nan nan nan nan nan nan nan nan nan nan nan nan nan nan nan nan nan nan nan 0 0 1 1 2 2 3 3 4 4 4 5 5 5 6 7 7 6
nan nan nan nan nan nan nan nan nan nan nan nan nan nan nan nan nan nan nan nan nan nan nan nan nan nan nan nan nan nan nan nan nan nan nan nan nan nan nan nan nan nan nan nan nan nan nan nan nan nan nan nan nan nan nan nan nan nan nan nan nan nan nan nan nan nan nan 0 1 1 1 2 2 2 3 4 4 4 5 5 5 6 7 7 7 7
nan nan nan nan nan nan nan nan nan nan nan nan nan nan nan nan nan nan nan nan nan nan nan nan nan nan nan nan nan nan nan nan nan nan nan nan nan nan nan nan nan nan nan nan nan nan nan nan nan nan nan nan nan nan nan nan nan nan nan nan nan nan 0 0 0 0 0 0 1 1 1 1 1 1 2 3 3 3 4 4 4 4 5 5 5 5
nan nan nan nan nan nan nan nan nan nan nan nan nan nan nan nan nan nan nan nan nan nan nan nan nan nan nan nan nan nan nan nan nan nan nan nan nan nan nan nan nan nan nan nan nan nan nan nan nan nan nan nan nan nan nan nan nan nan nan nan nan 0 0 nan nan nan nan nan 0 0 0 0 0 0 1 1 1 1 2 2 2 1 2 2 2 2
nan nan nan nan nan nan nan nan nan nan nan nan nan nan nan nan nan nan nan nan nan nan nan nan nan nan nan nan nan nan nan nan nan nan nan nan nan nan nan nan nan nan nan nan nan nan nan nan nan nan nan nan nan nan nan nan nan nan nan nan nan nan nan nan nan nan nan nan nan nan nan nan nan nan nan nan 0 0 0 0 0 0 0 1 1 2
0 nan nan nan nan nan nan nan nan nan nan nan nan nan nan nan nan nan nan nan nan nan nan nan nan nan nan nan nan nan nan nan nan nan nan nan nan nan nan nan nan nan nan nan nan nan nan nan nan nan nan nan nan nan nan nan nan nan nan nan nan nan nan nan nan nan nan nan nan nan nan nan nan nan nan nan nan nan 0 0 0 0 1 nan nan nan
nan nan nan nan nan nan nan nan nan nan nan nan nan nan nan nan nan nan nan nan nan nan nan nan nan nan nan nan nan nan nan nan nan nan nan nan nan nan nan nan nan nan nan nan nan nan nan nan nan nan nan nan nan nan nan nan nan nan nan nan nan nan nan nan nan nan nan nan nan nan nan nan nan nan nan nan nan nan 0 0 0 1 0 nan nan nan
nan nan nan nan nan nan nan nan nan nan nan nan nan nan nan nan nan nan nan nan nan nan nan nan nan nan nan nan nan nan nan nan nan nan nan nan nan nan nan nan nan nan nan nan nan nan nan nan nan nan nan nan nan nan nan nan nan nan nan nan nan nan nan nan nan nan nan nan nan nan nan nan nan nan nan nan 0 0 0 1 1 0 nan nan nan nan
nan nan nan nan nan nan nan nan nan nan nan nan nan nan nan nan nan nan nan nan nan nan nan nan nan nan nan nan nan nan nan nan nan nan nan nan nan nan nan nan nan nan nan nan nan nan nan nan nan nan nan nan nan nan nan nan nan nan nan nan nan nan nan nan nan nan nan nan nan nan nan nan nan nan nan 0 0 0 0 1 1 nan nan nan nan nan
nan nan nan nan nan nan nan nan nan nan nan nan nan nan nan nan nan nan nan nan nan nan nan nan nan nan nan nan nan nan nan nan nan nan nan nan nan nan nan nan nan nan nan nan nan nan nan nan nan nan nan nan nan nan nan nan nan nan nan nan nan nan nan nan nan nan nan nan nan nan nan nan nan nan nan nan nan nan nan 0 0 0 nan nan nan nan
nan nan nan nan nan nan nan nan nan nan nan nan nan nan nan nan nan nan nan nan nan nan nan nan nan nan nan nan nan nan nan nan nan nan nan nan nan nan nan nan nan nan nan nan nan nan nan nan nan nan nan nan nan nan nan nan nan nan nan nan nan nan nan nan nan nan nan nan nan nan nan nan nan nan nan nan nan nan nan nan nan 0 nan nan nan nan
nan nan nan nan nan nan nan nan nan nan nan nan nan nan nan nan nan nan nan nan nan nan nan nan nan nan nan nan nan nan nan nan nan nan nan nan nan nan nan nan nan nan nan nan nan nan nan nan nan nan nan nan nan nan nan nan nan nan nan nan nan nan nan nan nan nan nan nan nan nan nan nan nan nan nan nan nan nan nan nan nan 0 1 nan nan nan
nan nan nan nan nan nan nan nan nan nan nan nan nan nan nan nan nan nan nan nan nan nan nan nan nan nan nan nan nan nan nan nan nan nan nan nan nan nan nan nan nan nan nan nan nan nan nan nan nan nan nan nan nan nan nan nan nan nan nan nan nan nan nan nan nan nan nan nan nan nan nan nan nan nan nan nan nan nan nan nan nan 0 1 3 3 nan
nan nan nan nan nan nan nan nan nan nan nan nan nan nan nan nan nan nan nan nan nan nan nan nan nan nan nan nan nan nan nan nan nan nan nan nan nan nan nan nan nan nan nan nan nan nan nan nan nan nan nan nan nan nan nan nan nan nan nan nan nan nan nan nan nan nan nan nan nan nan nan nan nan nan nan nan nan nan nan 0 0 0 1 2 2 3
nan nan nan nan nan nan nan nan nan nan nan nan nan nan nan nan nan nan nan nan nan nan nan nan nan nan nan nan nan nan nan nan nan nan nan nan nan nan nan nan nan nan nan nan nan nan nan nan nan nan nan nan nan nan nan nan nan nan nan nan nan nan nan nan nan nan nan nan nan nan nan nan nan nan nan nan nan nan nan 0 0 nan nan 0 0 2
nan nan nan nan nan nan nan nan nan nan nan nan nan nan nan nan nan nan nan nan nan nan nan nan nan nan nan nan nan nan nan nan nan nan nan nan nan nan nan nan nan nan nan nan nan nan nan nan nan nan nan nan nan nan nan nan nan nan nan nan nan nan nan nan nan nan nan nan nan nan nan nan nan nan nan nan nan nan nan nan nan nan nan nan nan 0
nan nan nan nan nan nan nan nan nan nan nan nan nan nan nan nan nan nan nan nan nan nan nan nan nan nan nan nan nan nan nan nan nan nan nan nan nan nan nan nan nan nan nan nan nan nan nan nan nan nan nan nan nan nan nan nan nan nan nan nan nan nan nan nan nan nan nan nan nan nan nan nan nan nan nan nan nan nan nan nan nan nan nan nan nan nan
nan nan nan nan nan nan nan nan nan nan nan nan nan nan nan nan nan nan nan nan nan nan nan nan nan nan nan nan nan nan nan nan nan nan nan nan nan nan nan nan nan nan nan nan nan nan nan nan nan nan nan nan nan nan nan nan nan nan nan nan nan nan nan nan nan nan nan nan nan nan nan nan nan nan nan nan nan nan nan nan nan nan nan nan nan nan
nan nan nan nan nan nan nan nan nan nan nan nan nan nan nan nan nan nan nan nan nan nan nan nan nan nan nan nan nan nan nan nan nan nan nan nan nan nan nan nan nan nan nan nan nan nan nan nan nan nan nan nan nan nan nan nan nan nan nan nan nan nan nan nan nan nan nan nan nan nan nan nan nan nan nan nan nan nan nan nan nan nan nan nan nan nan
nan nan nan nan nan nan nan nan nan nan nan nan nan nan nan nan nan nan nan nan nan nan nan nan nan nan nan nan nan nan nan nan nan nan nan nan nan nan nan nan nan nan nan nan nan nan nan nan nan nan nan nan nan nan nan nan nan nan nan nan nan nan nan nan nan nan nan nan nan nan nan nan nan nan nan nan nan nan nan nan nan nan nan nan nan nan
nan nan nan nan nan nan nan nan nan nan nan nan nan nan nan nan nan nan nan nan nan nan nan nan nan nan nan nan nan nan nan nan nan nan nan nan nan nan nan nan nan nan nan nan nan nan nan nan nan nan nan nan nan nan nan nan nan nan nan nan nan nan nan nan nan nan nan nan nan nan nan nan nan nan nan nan nan nan nan nan nan nan nan nan nan nan
nan nan nan nan nan nan nan nan nan nan nan nan nan nan nan nan nan nan nan nan nan nan nan nan nan nan nan nan nan nan nan nan nan nan nan nan nan nan nan nan nan nan nan nan nan nan nan nan nan nan nan nan nan nan nan nan nan nan nan nan nan nan nan nan nan nan nan nan nan nan nan nan nan nan nan nan nan nan nan nan nan nan nan nan nan nan
nan nan nan nan nan nan nan nan nan nan nan nan nan nan nan nan nan nan nan nan nan nan nan nan nan nan nan nan nan nan nan nan nan nan nan nan nan nan nan nan nan nan nan nan nan nan nan nan nan nan nan nan nan nan nan nan nan nan nan nan nan nan nan nan nan nan nan nan nan nan nan nan nan nan nan nan nan nan nan nan nan nan nan nan nan nan
nan nan nan nan nan nan nan nan nan nan nan nan nan nan nan nan nan nan nan nan nan nan nan nan nan nan nan nan nan nan nan nan nan nan nan nan nan nan nan nan nan nan nan nan nan nan nan nan nan nan nan nan nan nan nan nan nan nan nan nan nan nan nan nan nan nan nan nan nan nan nan nan nan nan nan nan nan nan nan nan nan nan nan nan nan nan
nan nan nan nan nan nan nan nan nan nan nan nan nan nan nan nan nan nan nan nan nan nan nan nan nan nan nan nan nan nan nan nan nan nan nan nan nan nan nan nan nan nan nan nan nan nan nan nan nan nan nan nan nan nan nan nan nan nan nan nan nan nan nan nan nan nan nan nan nan nan nan nan nan nan nan nan nan nan nan nan nan nan nan nan nan nan
nan nan nan nan nan nan nan nan nan nan nan nan nan nan nan nan nan nan nan nan nan nan nan nan nan nan nan nan nan nan nan nan nan nan nan nan nan nan nan nan nan nan nan nan nan nan nan nan nan nan nan nan nan nan nan nan nan nan nan nan nan nan nan nan nan nan nan nan nan nan nan nan nan nan nan nan nan nan nan nan nan nan nan nan nan nan
nan nan nan nan nan nan nan nan nan nan nan nan nan nan nan nan nan nan nan nan nan nan nan nan nan nan nan nan nan nan nan nan nan nan nan nan nan nan nan nan nan nan nan nan nan nan 0 0 0 nan nan nan nan nan nan nan nan nan nan nan nan nan nan nan nan nan nan nan nan nan nan nan nan nan nan nan nan nan nan nan nan nan nan nan nan nan
nan nan nan nan nan nan nan nan nan nan nan nan nan nan nan nan nan nan nan nan nan nan nan nan nan nan nan nan nan nan nan nan nan nan nan nan nan nan nan nan nan nan nan nan nan nan nan nan nan 0 4 nan nan nan nan nan nan nan nan nan nan nan nan nan nan nan nan nan nan nan nan nan nan nan nan nan nan nan nan nan nan nan nan nan nan nan
nan nan nan nan nan nan nan nan nan nan nan nan nan nan nan nan nan nan nan nan nan nan nan nan nan nan nan nan nan nan nan nan nan nan nan nan nan nan nan nan nan nan nan nan nan nan nan nan nan nan nan 6 nan nan nan nan nan nan nan nan nan nan nan nan nan nan nan nan nan nan nan nan nan nan nan nan nan nan nan nan nan nan nan nan nan nan